Home > Weather > Geneva > Past weeks

Flag for Switzerland Weather for the Past 2 Weeks in Geneva, Geneva, Switzerland

Now
39 °F

Chilly.


Feels Like: 39 °F
Forecast: 34 / 55 °F
Wind: 1 mph from Southwest

Location: Geneve-Cointrin

Current Time: Feb 5, 2016 at 11:51:31 PM

Latest Report: Feb 5, 2016 at 9:00 PM


Visibility: N/A

Pressure: 30.34 "Hg

Humidity: 98%

Dew point: 38 °F

Location of GenevaLocation

Historic Weather in Geneva — Graph

°F

Geneva Temperature Yesterday

Maximum temperature yesterday: 43 °F (at 1:00 PM)
Minimum temperature yesterday: 34 °F (at 7:00 AM)
Average temperature yesterday: 39 °F

High & Low Weather Summary for the Past Weeks

 TemperatureHumidityPressure
High57 °F (Feb 1, 3:00 PM)100% (Feb 5, 8:00 PM)30.69 "Hg (Feb 5, 8:00 PM)
Low27 °F (Jan 22, 8:00 AM)53% (Jan 30, 3:00 PM)30.11 "Hg (Jan 31, 6:00 AM)
Average43 °F80%30.42 "Hg
* Reported Jan 21 9:00 PM — Feb 5 9:00 PM, Geneva, Weather by CustomWeather, © 2016

Note: Actual official high and low records may vary slightly from our data, if they occured in-between our weather recording intervals... More about our weather records

Advertising

Geneva Weather History for the Previous 24 Hours

 ConditionsComfort  
Time TempWeatherWind HumidityBarometerVisibility
9:00 PM
Fri, Feb 5
39 °FChilly.1 mph98%30.34 "HgN/A
8:00 PM38 °FChilly.2 mph100%30.35 "HgN/A
7:00 PM39 °FFog.3 mph97%30.35 "Hg1 mi
6:00 PM40 °FChilly.3 mph93%30.35 "HgN/A
5:00 PM44 °FQuite cool.7 mph85%30.34 "HgN/A
4:00 PM47 °FPassing clouds.7 mph76%30.34 "Hg16 mi
3:00 PM47 °FCool.6 mph75%30.35 "HgN/A
2:00 PM46 °FCool.3 mph80%30.38 "HgN/A
1:00 PM43 °FFog.1 mph82%30.41 "Hg9 mi
12:00 PM40 °FQuite cool.1 mph90%30.45 "HgN/A
11:00 AM38 °FChilly.1 mph95%30.48 "HgN/A
10:00 AM38 °FFog.3 mph97%30.47 "Hg4 mi
9:00 AM34 °FChilly.1 mph97%30.49 "HgN/A
8:00 AM34 °FChilly.3 mph94%30.50 "HgN/A
7:00 AM34 °FPassing clouds.3 mph98%30.49 "Hg12 mi
11:00 PM
Thu, Feb 4
38 °FChilly.3 mph93%30.53 "HgN/A
Weather by CustomWeather, © 2016

See weather overviewHow to use our weather pages